Location: Unspecified
(0.0000°N, 0.0000°E)
Time: 13:28:25
(UTC+00:00)

Vanguard 1 Rocket - Pass Details

Date: 17 December 2017
Orbit: 656 x 4222 km, 34.3° (Epoch: 15 January)

Event Time Altitude Azimuth Distance (km) Brightness Sun altitude
Rises 18:02:20 0° 327° (NNW) 5,039 11.3 -1.4°
Reaches altitude 10° 18:10:09 10° 1° (N) 5,017 10.9 -3.2°
Maximum altitude 18:13:44 11° 16° (NNE) 5,331 10.9 -4.0°
Drops below altitude 10° 18:17:49 10° 30° (NNE) 5,845 11.0 -4.9°
Enters shadow 18:25:57 - 50° (NE) 7,102 11.3 -6.8°
Sets 18:30:59 0° 60° (ENE) 7,918 - -7.9°
